Time,TemperatureF,DewpointF,PressureIn,WindDirection,WindDirectionDegrees,WindSpeedMPH,WindSpeedGustMPH,Humidity,HourlyPrecipIn,Conditions,Clouds,dailyrainin,SoftwareType,DateUTC
2013-07-10 00:01:00,70.2,45.4,28.72,South,180,3.5,3.5,41,0.00,RA,SKC,0.00,WeatherDisplay:10.37,2013-07-10 04:01:00,
2013-07-10 00:02:00,70.2,45.4,28.72,South,180,3.5,3.5,41,0.00,RA,SKC,0.00,WeatherDisplay:10.37,2013-07-10 04:02:00,
2013-07-10 00:03:00,70.2,45.4,28.72,South,180,3.8,3.8,41,0.00,RA,SKC,0.00,WeatherDisplay:10.37,2013-07-10 04:03:00,
2013-07-10 00:08:00,70.0,43.9,28.71,South,180,3.5,3.5,39,0.00,RA,SKC,0.00,WeatherDisplay:10.37,2013-07-10 04:08:00,
2013-07-10 00:13:00,70.0,41.8,28.71,South,180,5.8,5.8,36,0.00,CLR,SKC,0.00,WeatherDisplay:10.37,2013-07-10 04:13:00,
2013-07-10 00:18:00,70.0,39.5,28.71,NNE,15,3.5,3.5,33,0.00,CLR,SKC,0.00,WeatherDisplay:10.37,2013-07-10 04:18:00,
2013-07-10 00:23:00,70.0,37.1,28.72,SE,135,3.5,0.0,30,0.00,CLR,SKC,0.00,WeatherDisplay:10.37,2013-07-10 04:23:00,
2013-07-10 00:28:00,70.0,37.1,28.71,South,180,1.2,1.2,30,0.00,CLR,SKC,0.00,WeatherDisplay:10.37,2013-07-10 04:28:00,
2013-07-10 00:33:00,70.0,37.1,28.72,NW,315,1.2,0.0,30,0.00,CLR,SKC,0.00,WeatherDisplay:10.37,2013-07-10 04:33:00,
2013-07-10 00:38:00,70.0,37.1,28.72,South,180,2.3,2.3,30,0.00,CLR,SKC,0.00,WeatherDisplay:10.37,2013-07-10 04:38:00,
2013-07-10 00:43:00,70.0,37.1,28.71,SE,135,5.8,0.0,30,0.00,CLR,SKC,0.00,WeatherDisplay:10.37,2013-07-10 04:43:00,
2013-07-10 00:48:00,70.0,37.1,28.72,South,180,2.3,2.3,30,0.00,CLR,SKC,0.00,WeatherDisplay:10.37,2013-07-10 04:48:00,
2013-07-10 00:53:00,70.0,37.1,28.72,South,180,2.3,2.3,30,0.00,CLR,SKC,0.00,WeatherDisplay:10.37,2013-07-10 04:53:00,
2013-07-10 00:58:00,69.8,36.9,28.72,SE,135,2.3,0.0,30,0.00,CLR,SKC,0.00,WeatherDisplay:10.37,2013-07-10 04:58:00,
2013-07-10 01:03:00,69.8,36.9,28.72,South,180,3.5,3.5,30,0.00,CLR,SKC,0.00,WeatherDisplay:10.37,2013-07-10 05:03:00,
2013-07-10 01:08:00,69.8,36.9,28.71,West,270,3.5,0.0,30,0.00,CLR,SKC,0.00,WeatherDisplay:10.37,2013-07-10 05:08:00,
2013-07-10 01:13:00,69.8,36.9,28.72,NW,315,3.5,0.0,30,0.00,CLR,SKC,0.00,WeatherDisplay:10.37,2013-07-10 05:13:00,
2013-07-10 01:18:00,69.8,36.9,28.71,West,270,3.5,3.5,30,0.00,CLR,SKC,0.00,WeatherDisplay:10.37,2013-07-10 05:18:00,
2013-07-10 01:23:00,69.8,36.9,28.71,South,180,3.5,3.5,30,0.00,CLR,SKC,0.00,WeatherDisplay:10.37,2013-07-10 05:23:00,
2013-07-10 01:28:00,69.8,36.9,28.71,South,180,3.5,3.5,30,0.00,CLR,SKC,0.00,WeatherDisplay:10.37,2013-07-10 05:28:00,
2013-07-10 01:33:00,69.8,36.9,28.72,South,180,2.3,2.3,30,0.00,CLR,SKC,0.00,WeatherDisplay:10.37,2013-07-10 05:33:00,
2013-07-10 01:38:00,69.6,36.8,28.71,West,270,2.3,2.3,30,0.00,CLR,SKC,0.00,WeatherDisplay:10.37,2013-07-10 05:38:00,
2013-07-10 01:43:00,69.8,36.9,28.72,SSE,158,3.5,3.5,30,0.00,CLR,SKC,0.00,WeatherDisplay:10.37,2013-07-10 05:43:00,
2013-07-10 01:48:00,69.6,36.8,28.71,North,8,1.2,1.2,30,0.00,CLR,SKC,0.00,WeatherDisplay:10.37,2013-07-10 05:48:00,
2013-07-10 01:53:00,69.6,36.8,28.71,South,180,2.3,0.0,30,0.00,CLR,SKC,0.00,WeatherDisplay:10.37,2013-07-10 05:53:00,
2013-07-10 01:58:00,69.6,36.8,28.70,East,90,1.2,1.2,30,0.00,CLR,SKC,0.00,WeatherDisplay:10.37,2013-07-10 05:58:00,
2013-07-10 02:03:00,69.6,36.8,28.70,SE,135,3.5,0.0,30,0.00,CLR,SKC,0.00,WeatherDisplay:10.37,2013-07-10 06:03:00,
2013-07-10 02:08:00,69.6,36.8,28.70,SE,135,3.5,0.0,30,0.00,CLR,SKC,0.00,WeatherDisplay:10.37,2013-07-10 06:08:00,
2013-07-10 02:13:00,69.6,36.8,28.70,South,180,3.5,0.0,30,0.00,CLR,SKC,0.00,WeatherDisplay:10.37,2013-07-10 06:13:00,
2013-07-10 02:18:00,69.4,36.6,28.70,South,180,2.3,2.3,30,0.00,CLR,SKC,0.00,WeatherDisplay:10.37,2013-07-10 06:18:00,
2013-07-10 02:23:00,69.4,36.6,28.70,North,6,2.3,0.0,30,0.00,CLR,SKC,0.00,WeatherDisplay:10.37,2013-07-10 06:23:00,
2013-07-10 02:28:00,69.4,36.6,28.69,South,180,3.5,0.0,30,0.00,CLR,SKC,0.00,WeatherDisplay:10.37,2013-07-10 06:28:00,
2013-07-10 02:33:00,69.4,36.6,28.69,SE,135,2.3,0.0,30,0.00,CLR,SKC,0.00,WeatherDisplay:10.37,2013-07-10 06:33:00,
2013-07-10 02:38:00,69.4,36.6,28.69,South,180,3.5,0.0,30,0.00,CLR,SKC,0.00,WeatherDisplay:10.37,2013-07-10 06:38:00,
2013-07-10 02:43:00,69.4,36.6,28.69,South,180,2.3,0.0,30,0.00,CLR,SKC,0.00,WeatherDisplay:10.37,2013-07-10 06:43:00,
2013-07-10 02:48:00,69.4,36.6,28.69,South,180,1.2,0.0,30,0.00,CLR,SKC,0.00,WeatherDisplay:10.37,2013-07-10 06:48:00,
2013-07-10 02:53:00,69.4,36.6,28.68,North,8,2.3,0.0,30,0.00,CLR,SKC,0.00,WeatherDisplay:10.37,2013-07-10 06:53:00,
2013-07-10 02:58:00,69.4,36.6,28.68,South,180,4.6,4.6,30,0.00,CLR,SKC,0.00,WeatherDisplay:10.37,2013-07-10 06:58:00,
2013-07-10 03:03:00,69.4,36.6,28.68,South,180,1.2,0.0,30,0.00,CLR,SKC,0.00,WeatherDisplay:10.37,2013-07-10 07:03:00,
2013-07-10 03:08:00,69.4,36.6,28.67,South,180,3.8,3.8,30,0.00,CLR,SKC,0.00,WeatherDisplay:10.37,2013-07-10 07:08:00,
2013-07-10 03:13:00,69.4,36.6,28.68,South,180,3.5,3.5,30,0.00,CLR,SKC,0.00,WeatherDisplay:10.37,2013-07-10 07:13:00,
2013-07-10 03:18:00,69.4,36.6,28.68,SE,135,8.1,8.1,30,0.00,CLR,SKC,0.00,WeatherDisplay:10.37,2013-07-10 07:18:00,
2013-07-10 03:23:00,69.6,36.8,28.67,SE,135,3.5,4.5,30,0.00,CLR,SKC,0.00,WeatherDisplay:10.37,2013-07-10 07:23:00,
2013-07-10 03:28:00,69.4,36.6,28.67,South,180,3.5,3.5,30,0.00,CLR,SKC,0.00,WeatherDisplay:10.37,2013-07-10 07:28:00,
2013-07-10 03:33:00,69.6,36.8,28.67,SSE,158,3.5,3.5,30,0.00,CLR,SKC,0.00,WeatherDisplay:10.37,2013-07-10 07:33:00,
2013-07-10 03:38:00,69.6,36.8,28.67,South,180,4.6,4.6,30,0.00,CLR,SKC,0.00,WeatherDisplay:10.37,2013-07-10 07:38:00,
2013-07-10 03:43:00,69.6,36.8,28.68,South,180,1.2,0.0,30,0.00,CLR,SKC,0.00,WeatherDisplay:10.37,2013-07-10 07:43:00,
2013-07-10 03:48:00,69.6,36.8,28.68,South,180,4.6,4.6,30,0.00,CLR,SKC,0.00,WeatherDisplay:10.37,2013-07-10 07:48:00,
2013-07-10 03:53:00,69.6,36.8,28.67,South,180,3.5,3.5,30,0.00,CLR,SKC,0.00,WeatherDisplay:10.37,2013-07-10 07:53:00,
2013-07-10 03:58:00,69.6,36.8,28.67,South,180,2.3,0.0,30,0.00,CLR,SKC,0.00,WeatherDisplay:10.37,2013-07-10 07:58:00,
2013-07-10 04:03:00,69.6,36.8,28.67,SE,135,4.6,4.6,30,0.00,CLR,SKC,0.00,WeatherDisplay:10.37,2013-07-10 08:03:00,
2013-07-10 04:08:00,69.6,36.8,28.67,SE,135,10.4,10.4,30,0.00,CLR,SKC,0.00,WeatherDisplay:10.37,2013-07-10 08:08:00,
2013-07-10 04:13:00,69.6,36.8,28.67,South,180,8.1,8.1,30,0.01,RA,SKC,0.01,WeatherDisplay:10.37,2013-07-10 08:13:00,
2013-07-10 04:18:00,69.6,36.8,28.67,South,180,3.5,0.0,30,0.01,RA,SKC,0.01,WeatherDisplay:10.37,2013-07-10 08:18:00,
2013-07-10 04:23:00,69.6,36.8,28.67,SE,135,3.5,3.5,30,0.01,,SKC,0.01,WeatherDisplay:10.37,2013-07-10 08:23:00,
2013-07-10 04:28:00,69.6,36.8,28.67,SSE,158,5.8,5.8,30,0.01,CLR,SKC,0.01,WeatherDisplay:10.37,2013-07-10 08:28:00,
2013-07-10 04:33:00,69.4,36.6,28.67,South,180,3.5,0.0,30,0.01,CLR,SKC,0.01,WeatherDisplay:10.37,2013-07-10 08:33:00,
2013-07-10 04:38:00,69.4,36.6,28.67,South,180,4.6,0.0,30,0.01,CLR,SKC,0.01,WeatherDisplay:10.37,2013-07-10 08:38:00,
2013-07-10 04:43:00,69.4,36.6,28.67,South,180,3.5,0.0,30,0.01,CLR,SKC,0.01,WeatherDisplay:10.37,2013-07-10 08:43:00,
2013-07-10 04:48:00,69.4,36.6,28.67,SE,135,3.5,3.5,30,0.01,CLR,SKC,0.01,WeatherDisplay:10.37,2013-07-10 08:48:00,
2013-07-10 04:53:00,69.4,36.6,28.67,South,180,4.6,0.0,30,0.01,CLR,SKC,0.01,WeatherDisplay:10.37,2013-07-10 08:53:00,
2013-07-10 04:58:00,69.4,36.6,28.66,South,180,3.5,3.5,30,0.01,CLR,SKC,0.01,WeatherDisplay:10.37,2013-07-10 08:58:00,
2013-07-10 05:03:00,69.4,36.6,28.67,South,180,1.2,0.0,30,0.01,CLR,SKC,0.01,WeatherDisplay:10.37,2013-07-10 09:03:00,
2013-07-10 05:08:00,69.4,36.6,28.67,South,180,1.2,0.0,30,0.01,CLR,SKC,0.01,WeatherDisplay:10.37,2013-07-10 09:08:00,
2013-07-10 05:13:00,69.3,36.5,28.67,South,180,4.6,0.0,30,0.00,CLR,SKC,0.01,WeatherDisplay:10.37,2013-07-10 09:13:00,
2013-07-10 05:18:00,69.4,36.6,28.67,South,180,5.8,5.8,30,0.00,CLR,SKC,0.01,WeatherDisplay:10.37,2013-07-10 09:18:00,
2013-07-10 05:23:00,69.4,36.6,28.67,West,270,1.2,0.0,30,0.00,CLR,SKC,0.01,WeatherDisplay:10.37,2013-07-10 09:23:00,
2013-07-10 05:28:00,69.4,36.6,28.68,South,180,0.0,0.0,30,0.00,CLR,SKC,0.01,WeatherDisplay:10.37,2013-07-10 09:28:00,
2013-07-10 05:33:00,69.4,36.6,28.68,North,5,1.2,0.0,30,0.00,CLR,SKC,0.01,WeatherDisplay:10.37,2013-07-10 09:33:00,
2013-07-10 05:39:00,69.4,36.6,28.68,North,0,1.2,0.0,30,0.00,CLR,SKC,0.01,WeatherDisplay:10.37,2013-07-10 09:39:00,
2013-07-10 05:44:00,69.4,36.6,28.68,North,0,2.3,0.0,30,0.01,RA,SKC,0.02,WeatherDisplay:10.37,2013-07-10 09:44:00,
2013-07-10 05:49:00,69.4,36.6,28.69,NNE,14,3.5,0.0,30,0.01,RA,SKC,0.05,WeatherDisplay:10.37,2013-07-10 09:49:00,
2013-07-10 05:54:00,69.4,36.6,28.69,North,0,0.0,0.0,30,0.06,RA,SKC,0.07,WeatherDisplay:10.37,2013-07-10 09:54:00,
2013-07-10 05:59:00,69.4,36.6,28.68,South,180,5.8,5.8,30,0.13,RA,SKC,0.17,WeatherDisplay:10.37,2013-07-10 09:59:00,
2013-07-10 06:04:00,69.4,36.6,28.68,South,180,5.8,0.0,30,0.22,RA,SKC,0.25,WeatherDisplay:10.37,2013-07-10 10:04:00,
2013-07-10 06:09:00,69.4,36.6,28.68,South,180,3.5,3.5,30,0.30,RA,SKC,0.31,WeatherDisplay:10.37,2013-07-10 10:09:00,
2013-07-10 06:14:00,69.3,36.5,28.67,SSE,158,2.3,0.0,30,0.31,RA,SKC,0.32,WeatherDisplay:10.37,2013-07-10 10:14:00,
2013-07-10 06:19:00,69.3,36.5,28.67,South,180,1.2,0.0,30,0.31,RA,SKC,0.32,WeatherDisplay:10.37,2013-07-10 10:19:00,
2013-07-10 06:24:00,69.3,36.5,28.67,South,180,1.2,0.0,30,0.31,CLR,SKC,0.32,WeatherDisplay:10.37,2013-07-10 10:24:00,
2013-07-10 06:29:00,69.4,36.6,28.67,East,90,3.5,0.0,30,0.32,RA,SKC,0.33,WeatherDisplay:10.37,2013-07-10 10:29:00,
2013-07-10 06:34:00,69.4,36.6,28.67,East,90,0.0,0.0,30,0.33,RA,SKC,0.34,WeatherDisplay:10.37,2013-07-10 10:34:00,
2013-07-10 06:39:00,69.3,36.5,28.67,East,90,0.0,0.0,30,0.33,RA,SKC,0.34,WeatherDisplay:10.37,2013-07-10 10:39:00,
2013-07-10 06:44:00,69.3,36.5,28.67,NW,315,0.0,0.0,30,0.32,,SKC,0.34,WeatherDisplay:10.37,2013-07-10 10:44:00,
2013-07-10 06:49:00,69.3,36.5,28.67,NW,315,0.0,0.0,30,0.32,CLR,SKC,0.34,WeatherDisplay:10.37,2013-07-10 10:49:00,
2013-07-10 06:54:00,69.3,36.5,28.67,South,180,0.0,0.0,30,0.28,CLR,SKC,0.34,WeatherDisplay:10.37,2013-07-10 10:54:00,
2013-07-10 06:59:00,69.3,36.5,28.68,South,180,0.0,0.0,30,0.18,CLR,SKC,0.34,WeatherDisplay:10.37,2013-07-10 10:59:00,
2013-07-10 07:04:00,69.4,36.6,28.68,South,180,0.0,0.0,30,0.11,CLR,SKC,0.34,WeatherDisplay:10.37,2013-07-10 11:04:00,
2013-07-10 07:09:00,69.4,36.6,28.68,SE,135,0.0,0.0,30,0.08,RA,SKC,0.40,WeatherDisplay:10.37,2013-07-10 11:09:00,
2013-07-10 07:14:00,69.4,36.6,28.68,South,180,2.3,2.3,30,0.09,RA,SKC,0.41,WeatherDisplay:10.37,2013-07-10 11:14:00,
2013-07-10 07:19:00,69.4,36.6,28.68,South,180,1.2,0.0,30,0.09,RA,SKC,0.41,WeatherDisplay:10.37,2013-07-10 11:19:00,
2013-07-10 07:24:00,69.6,36.8,28.68,North,8,0.0,0.0,30,0.11,RA,SKC,0.43,WeatherDisplay:10.37,2013-07-10 11:24:00,
2013-07-10 07:29:00,69.6,36.8,28.68,North,0,0.0,0.0,30,0.09,RA,SKC,0.43,WeatherDisplay:10.37,2013-07-10 11:29:00,
2013-07-10 07:33:00,69.6,36.8,28.68,North,0,0.0,0.0,30,0.08,CLR,SKC,0.44,WeatherDisplay:10.37,2013-07-10 11:33:00,
2013-07-10 07:38:00,69.6,36.8,28.68,South,180,1.2,0.0,30,0.09,RA,SKC,0.44,WeatherDisplay:10.37,2013-07-10 11:38:00,
2013-07-10 07:43:00,69.6,36.8,28.68,South,180,0.0,0.0,30,0.11,RA,SKC,0.45,WeatherDisplay:10.37,2013-07-10 11:43:00,
2013-07-10 07:48:00,69.6,36.8,28.68,South,180,0.0,0.0,30,0.12,RA,SKC,0.46,WeatherDisplay:10.37,2013-07-10 11:48:00,
2013-07-10 07:53:00,69.6,36.8,28.69,North,6,0.0,0.0,30,0.13,RA,SKC,0.47,WeatherDisplay:10.37,2013-07-10 11:53:00,
2013-07-10 07:58:00,69.6,36.8,28.68,North,0,0.0,0.0,30,0.13,RA,SKC,0.48,WeatherDisplay:10.37,2013-07-10 11:58:00,
2013-07-10 08:03:00,69.6,36.8,28.69,North,0,0.0,0.0,30,0.14,RA,SKC,0.48,WeatherDisplay:10.37,2013-07-10 12:03:00,
2013-07-10 08:08:00,69.6,36.8,28.69,North,0,0.0,0.0,30,0.12,RA,SKC,0.51,WeatherDisplay:10.37,2013-07-10 12:08:00,
2013-07-10 08:13:00,69.6,36.8,28.69,North,0,0.0,0.0,30,0.11,RA,SKC,0.52,WeatherDisplay:10.37,2013-07-10 12:13:00,
2013-07-10 08:18:00,69.6,36.8,28.70,South,180,0.0,0.0,30,0.12,RA,SKC,0.53,WeatherDisplay:10.37,2013-07-10 12:18:00,
2013-07-10 08:23:00,69.6,36.8,28.68,South,180,0.0,0.0,30,0.11,RA,SKC,0.53,WeatherDisplay:10.37,2013-07-10 12:23:00,
2013-07-10 08:28:00,69.6,36.8,28.68,South,180,3.5,3.5,30,0.14,RA,SKC,0.57,WeatherDisplay:10.37,2013-07-10 12:28:00,
2013-07-10 08:34:00,69.6,36.8,28.68,SW,225,1.2,0.0,30,0.18,RA,SKC,0.61,WeatherDisplay:10.37,2013-07-10 12:34:00,
2013-07-10 08:39:00,69.4,36.6,28.68,South,180,1.2,0.0,30,0.20,RA,SKC,0.64,WeatherDisplay:10.37,2013-07-10 12:39:00,
2013-07-10 08:44:00,69.4,36.6,28.68,NW,315,2.3,0.0,30,0.19,RA,SKC,0.64,WeatherDisplay:10.37,2013-07-10 12:44:00,
2013-07-10 08:49:00,69.3,36.5,28.68,North,0,1.2,0.0,30,0.19,RA,SKC,0.65,WeatherDisplay:10.37,2013-07-10 12:49:00,
2013-07-10 08:54:00,69.3,36.5,28.68,South,180,3.5,3.5,30,0.18,RA,SKC,0.65,WeatherDisplay:10.37,2013-07-10 12:54:00,
2013-07-10 08:59:00,69.1,36.3,28.68,South,180,2.3,2.3,30,0.17,CLR,SKC,0.65,WeatherDisplay:10.37,2013-07-10 12:59:00,
2013-07-10 09:04:00,68.9,36.2,28.69,East,90,3.5,3.5,30,0.17,CLR,SKC,0.65,WeatherDisplay:10.37,2013-07-10 13:04:00,
2013-07-10 09:09:00,68.7,36.0,28.69,SE,135,4.6,4.6,30,0.14,CLR,SKC,0.65,WeatherDisplay:10.37,2013-07-10 13:09:00,
2013-07-10 09:14:00,68.5,35.9,28.69,South,180,4.6,4.6,30,0.14,RA,SKC,0.66,WeatherDisplay:10.37,2013-07-10 13:14:00,
2013-07-10 09:19:00,68.4,35.7,28.68,South,180,5.8,5.8,30,0.13,RA,SKC,0.66,WeatherDisplay:10.37,2013-07-10 13:19:00,
2013-07-10 09:24:00,68.4,35.7,28.68,South,180,3.5,0.0,30,0.12,CLR,SKC,0.66,WeatherDisplay:10.37,2013-07-10 13:24:00,
2013-07-10 09:29:00,68.2,35.5,28.68,South,180,5.4,5.4,30,0.08,CLR,SKC,0.66,WeatherDisplay:10.37,2013-07-10 13:29:00,
2013-07-10 09:34:00,68.2,35.5,28.67,South,180,5.8,5.8,30,0.05,CLR,SKC,0.66,WeatherDisplay:10.37,2013-07-10 13:34:00,
2013-07-10 09:39:00,68.4,35.7,28.68,South,180,3.5,0.0,30,0.02,CLR,SKC,0.66,WeatherDisplay:10.37,2013-07-10 13:39:00,
2013-07-10 09:45:00,68.5,35.9,28.68,SE,135,3.5,3.5,30,0.02,CLR,SKC,0.66,WeatherDisplay:10.37,2013-07-10 13:45:00,
2013-07-10 09:50:00,68.9,36.2,28.73,NW,315,20.7,20.7,30,0.02,RA,SKC,0.67,WeatherDisplay:10.37,2013-07-10 13:50:00,
2013-07-10 09:55:00,67.6,35.1,28.72,West,270,19.6,19.6,30,0.06,RA,SKC,0.71,WeatherDisplay:10.37,2013-07-10 13:55:00,
2013-07-10 10:00:00,67.1,34.6,28.71,North,0,5.8,5.8,30,0.08,RA,SKC,0.73,WeatherDisplay:10.37,2013-07-10 14:00:00,
2013-07-10 10:05:00,66.9,34.5,28.71,North,0,9.2,9.2,30,0.08,RA,SKC,0.73,WeatherDisplay:10.37,2013-07-10 14:05:00,
2013-07-10 10:10:00,66.7,34.3,28.70,West,270,4.6,4.6,30,0.08,CLR,SKC,0.73,WeatherDisplay:10.37,2013-07-10 14:10:00,
2013-07-10 10:15:00,66.7,34.3,28.70,South,180,3.5,0.0,30,0.17,RA,SKC,0.83,WeatherDisplay:10.37,2013-07-10 14:15:00,
2013-07-10 10:20:00,66.6,34.1,28.69,South,180,5.8,5.8,30,0.20,RA,SKC,0.87,WeatherDisplay:10.37,2013-07-10 14:20:00,
2013-07-10 10:25:00,66.6,34.1,28.67,SE,135,5.8,5.8,30,0.24,RA,SKC,0.90,WeatherDisplay:10.37,2013-07-10 14:25:00,
2013-07-10 10:30:00,66.4,34.0,28.68,North,0,4.6,4.6,30,0.25,RA,SKC,0.91,WeatherDisplay:10.37,2013-07-10 14:30:00,
2013-07-10 10:35:00,66.2,33.8,28.68,East,90,5.8,5.8,30,0.26,RA,SKC,0.92,WeatherDisplay:10.37,2013-07-10 14:35:00,
2013-07-10 10:40:00,66.2,33.8,28.68,South,180,3.5,0.0,30,0.26,RA,SKC,0.92,WeatherDisplay:10.37,2013-07-10 14:40:00,
2013-07-10 10:45:00,66.2,33.8,28.67,SE,135,3.5,3.5,30,0.26,CLR,SKC,0.92,WeatherDisplay:10.37,2013-07-10 14:45:00,
2013-07-10 10:50:00,66.2,33.8,28.68,SE,135,8.1,8.1,30,0.25,CLR,SKC,0.92,WeatherDisplay:10.37,2013-07-10 14:50:00,
2013-07-10 10:55:00,66.0,33.7,28.68,South,180,3.5,3.5,30,0.21,CLR,SKC,0.92,WeatherDisplay:10.37,2013-07-10 14:55:00,
2013-07-10 11:00:00,66.0,33.7,28.68,South,180,8.1,8.1,30,0.19,CLR,SKC,0.92,WeatherDisplay:10.37,2013-07-10 15:00:00,
2013-07-10 11:05:00,66.0,33.7,28.67,South,180,8.1,8.1,30,0.19,CLR,SKC,0.92,WeatherDisplay:10.37,2013-07-10 15:05:00,
2013-07-10 11:10:00,66.4,34.0,28.67,SE,135,3.5,3.5,30,0.19,CLR,SKC,0.92,WeatherDisplay:10.37,2013-07-10 15:10:00,
2013-07-10 11:15:00,66.4,34.0,28.67,South,180,4.6,4.6,30,0.09,CLR,SKC,0.92,WeatherDisplay:10.37,2013-07-10 15:15:00,
2013-07-10 11:20:00,66.6,34.1,28.67,SE,135,3.5,0.0,30,0.06,CLR,SKC,0.92,WeatherDisplay:10.37,2013-07-10 15:20:00,
2013-07-10 11:25:00,66.7,34.3,28.66,SE,135,3.5,3.5,30,0.02,CLR,SKC,0.92,WeatherDisplay:10.37,2013-07-10 15:25:00,
2013-07-10 11:30:00,67.1,34.6,28.66,South,180,2.3,2.3,30,0.01,CLR,SKC,0.92,WeatherDisplay:10.37,2013-07-10 15:30:00,
2013-07-10 11:35:00,67.5,34.9,28.67,South,180,3.5,3.5,30,0.00,CLR,SKC,0.92,WeatherDisplay:10.37,2013-07-10 15:35:00,
2013-07-10 11:40:00,68.0,35.4,28.66,SE,135,2.3,0.0,30,0.00,CLR,SKC,0.92,WeatherDisplay:10.37,2013-07-10 15:40:00,
2013-07-10 11:45:00,68.9,36.2,28.66,South,180,2.3,2.3,30,0.00,CLR,SKC,0.92,WeatherDisplay:10.37,2013-07-10 15:45:00,
2013-07-10 11:50:00,69.3,36.5,28.66,South,180,3.5,3.5,30,0.00,CLR,SKC,0.92,WeatherDisplay:10.37,2013-07-10 15:50:00,
2013-07-10 11:56:00,69.8,36.9,28.66,South,180,3.5,3.5,30,0.00,CLR,SKC,0.92,WeatherDisplay:10.37,2013-07-10 15:56:00,
2013-07-10 12:01:00,70.3,37.4,28.66,SSE,158,3.5,3.5,30,0.00,CLR,SKC,0.92,WeatherDisplay:10.37,2013-07-10 16:01:00,
2013-07-10 12:06:00,70.3,37.4,28.66,SSE,158,3.5,3.5,30,0.00,CLR,SKC,0.92,WeatherDisplay:10.37,2013-07-10 16:06:00,
2013-07-10 12:11:00,70.9,37.9,28.66,South,180,5.8,5.8,30,0.00,CLR,SKC,0.92,WeatherDisplay:10.37,2013-07-10 16:11:00,
2013-07-10 12:16:00,71.1,38.0,28.66,SE,135,3.5,3.5,30,0.00,CLR,SKC,0.92,WeatherDisplay:10.37,2013-07-10 16:16:00,
2013-07-10 12:21:00,71.6,38.5,28.66,SE,135,3.5,3.5,30,0.00,CLR,SKC,0.92,WeatherDisplay:10.37,2013-07-10 16:21:00,
2013-07-10 12:26:00,72.1,39.0,28.65,SE,135,3.5,3.5,30,0.00,CLR,SKC,0.92,WeatherDisplay:10.37,2013-07-10 16:26:00,
2013-07-10 12:31:00,73.0,39.8,28.65,South,180,3.5,3.5,30,0.00,CLR,SKC,0.92,WeatherDisplay:10.37,2013-07-10 16:31:00,
2013-07-10 12:36:00,75.2,41.6,28.65,SE,135,3.5,3.5,30,0.00,CLR,SKC,0.92,WeatherDisplay:10.37,2013-07-10 16:36:00,
2013-07-10 12:41:00,75.2,41.6,28.64,SSE,158,5.8,5.8,30,0.00,CLR,SKC,0.92,WeatherDisplay:10.37,2013-07-10 16:41:00,
2013-07-10 12:46:00,75.6,41.9,28.64,SE,135,2.3,2.3,30,0.00,CLR,SKC,0.92,WeatherDisplay:10.37,2013-07-10 16:46:00,
2013-07-10 12:51:00,77.4,43.5,28.64,SE,135,5.8,5.8,30,0.00,CLR,SKC,0.92,WeatherDisplay:10.37,2013-07-10 16:51:00,
2013-07-10 12:56:00,78.6,44.6,28.64,South,180,6.9,6.9,30,0.00,CLR,SKC,0.92,WeatherDisplay:10.37,2013-07-10 16:56:00,
2013-07-10 13:02:00,79.0,44.9,28.64,South,180,3.5,3.5,30,0.00,CLR,SKC,0.92,WeatherDisplay:10.37,2013-07-10 17:02:00,
2013-07-10 13:07:00,79.0,44.9,28.64,South,180,3.5,3.5,30,0.00,CLR,SKC,0.92,WeatherDisplay:10.37,2013-07-10 17:07:00,
2013-07-10 13:12:00,80.8,46.4,28.63,SE,135,2.3,0.0,30,0.00,CLR,SKC,0.92,WeatherDisplay:10.37,2013-07-10 17:12:00,
2013-07-10 13:17:00,81.7,47.2,28.63,SE,135,3.5,3.5,30,0.00,CLR,SKC,0.92,WeatherDisplay:10.37,2013-07-10 17:17:00,
2013-07-10 13:22:00,82.4,47.8,28.62,South,180,1.2,0.0,30,0.00,CLR,SKC,0.92,WeatherDisplay:10.37,2013-07-10 17:22:00,
2013-07-10 13:27:00,84.0,49.2,28.63,SE,135,3.5,3.5,30,0.00,CLR,SKC,0.92,WeatherDisplay:10.37,2013-07-10 17:27:00,
2013-07-10 13:32:00,84.2,49.4,28.62,East,90,3.5,0.0,30,0.00,CLR,SKC,0.92,WeatherDisplay:10.37,2013-07-10 17:32:00,
2013-07-10 13:37:00,85.3,50.3,28.62,South,180,1.2,0.0,30,0.00,CLR,SKC,0.92,WeatherDisplay:10.37,2013-07-10 17:37:00,
2013-07-10 13:42:00,86.0,51.0,28.62,South,180,0.0,0.0,30,0.00,CLR,SKC,0.92,WeatherDisplay:10.37,2013-07-10 17:42:00,
2013-07-10 13:47:00,85.6,50.6,28.62,South,180,8.1,8.1,30,0.00,CLR,SKC,0.92,WeatherDisplay:10.37,2013-07-10 17:47:00,
2013-07-10 13:52:00,85.1,50.2,28.61,South,180,2.3,2.3,30,0.00,CLR,SKC,0.92,WeatherDisplay:10.37,2013-07-10 17:52:00,
2013-07-10 13:57:00,84.9,50.0,28.61,East,90,3.5,3.5,30,0.00,CLR,SKC,0.92,WeatherDisplay:10.37,2013-07-10 17:57:00,
2013-07-10 14:02:00,85.5,50.5,28.61,SE,135,5.8,5.8,30,0.00,CLR,SKC,0.92,WeatherDisplay:10.37,2013-07-10 18:02:00,
2013-07-10 14:07:00,86.5,51.4,28.61,NE,45,8.1,8.1,30,0.00,CLR,SKC,0.92,WeatherDisplay:10.37,2013-07-10 18:07:00,
2013-07-10 14:12:00,86.7,51.6,28.61,South,180,8.1,8.1,30,0.00,CLR,SKC,0.92,WeatherDisplay:10.37,2013-07-10 18:12:00,
2013-07-10 14:17:00,86.2,51.1,28.61,West,270,5.8,5.8,30,0.00,CLR,SKC,0.92,WeatherDisplay:10.37,2013-07-10 18:17:00,
2013-07-10 14:22:00,87.3,52.0,28.61,South,180,3.5,3.5,30,0.00,CLR,SKC,0.92,WeatherDisplay:10.37,2013-07-10 18:22:00,
2013-07-10 14:27:00,87.6,52.4,28.60,SE,135,3.5,3.5,30,0.00,CLR,SKC,0.92,WeatherDisplay:10.37,2013-07-10 18:27:00,
2013-07-10 14:32:00,88.3,53.0,28.59,SE,135,3.5,3.5,30,0.00,CLR,SKC,0.92,WeatherDisplay:10.37,2013-07-10 18:32:00,
2013-07-10 14:37:00,88.7,53.3,28.58,South,180,6.9,6.9,30,0.00,CLR,SKC,0.92,WeatherDisplay:10.37,2013-07-10 18:37:00,
2013-07-10 14:42:00,88.9,53.4,28.59,SE,135,4.6,4.6,30,0.00,CLR,SKC,0.92,WeatherDisplay:10.37,2013-07-10 18:42:00,
2013-07-10 14:47:00,88.5,53.1,28.58,East,90,3.5,0.0,30,0.00,CLR,SKC,0.92,WeatherDisplay:10.37,2013-07-10 18:47:00,
2013-07-10 14:52:00,89.4,53.9,28.58,SE,135,5.8,5.8,30,0.00,CLR,SKC,0.92,WeatherDisplay:10.37,2013-07-10 18:52:00,
2013-07-10 14:57:00,89.6,54.1,28.57,South,180,4.6,4.6,30,0.00,CLR,SKC,0.92,WeatherDisplay:10.37,2013-07-10 18:57:00,
2013-07-10 15:02:00,89.8,54.2,28.57,SSE,158,4.6,4.6,30,0.00,CLR,SKC,0.92,WeatherDisplay:10.37,2013-07-10 19:02:00,
2013-07-10 15:07:00,88.3,53.0,28.57,SE,135,3.1,3.1,30,0.00,CLR,SKC,0.92,WeatherDisplay:10.37,2013-07-10 19:07:00,
2013-07-10 15:13:00,88.0,52.7,28.57,North,0,3.5,3.5,30,0.00,CLR,SKC,0.92,WeatherDisplay:10.37,2013-07-10 19:13:00,
2013-07-10 15:18:00,87.4,52.2,28.56,South,180,6.9,6.9,30,0.00,CLR,SKC,0.92,WeatherDisplay:10.37,2013-07-10 19:18:00,
2013-07-10 15:23:00,87.3,52.0,28.56,SE,135,3.5,3.5,30,0.00,CLR,SKC,0.92,WeatherDisplay:10.37,2013-07-10 19:23:00,
2013-07-10 15:28:00,86.7,51.6,28.55,SE,135,6.9,6.9,30,0.00,CLR,SKC,0.92,WeatherDisplay:10.37,2013-07-10 19:28:00,
2013-07-10 15:33:00,86.5,51.4,28.54,South,180,6.9,6.9,30,0.00,CLR,SKC,0.92,WeatherDisplay:10.37,2013-07-10 19:33:00,
2013-07-10 15:38:00,86.9,51.7,28.53,South,180,5.8,5.8,30,0.00,CLR,SKC,0.92,WeatherDisplay:10.37,2013-07-10 19:38:00,
2013-07-10 15:43:00,87.6,52.4,28.53,East,90,3.5,3.5,30,0.00,CLR,SKC,0.92,WeatherDisplay:10.37,2013-07-10 19:43:00,
2013-07-10 15:48:00,87.3,52.0,28.53,North,8,10.4,10.4,30,0.00,CLR,SKC,0.92,WeatherDisplay:10.37,2013-07-10 19:48:00,
2013-07-10 15:53:00,87.1,51.9,28.54,SSE,158,5.8,5.8,30,0.00,CLR,SKC,0.92,WeatherDisplay:10.37,2013-07-10 19:53:00,
2013-07-10 15:58:00,87.3,52.0,28.54,South,180,9.8,9.8,30,0.00,CLR,SKC,0.92,WeatherDisplay:10.37,2013-07-10 19:58:00,
2013-07-10 16:03:00,87.1,51.9,28.54,SE,135,4.6,4.6,30,0.00,CLR,SKC,0.92,WeatherDisplay:10.37,2013-07-10 20:03:00,
2013-07-10 16:08:00,87.4,52.2,28.54,North,1,3.5,3.5,30,0.00,CLR,SKC,0.92,WeatherDisplay:10.37,2013-07-10 20:08:00,
2013-07-10 16:13:00,87.3,52.0,28.54,South,180,3.5,3.5,30,0.00,CLR,SKC,0.92,WeatherDisplay:10.37,2013-07-10 20:13:00,
2013-07-10 16:18:00,87.1,51.9,28.54,North,0,3.5,3.5,30,0.00,CLR,SKC,0.92,WeatherDisplay:10.37,2013-07-10 20:18:00,
2013-07-10 16:24:00,85.3,50.3,28.55,SE,135,5.8,5.8,30,0.00,CLR,SKC,0.92,WeatherDisplay:10.37,2013-07-10 20:24:00,
2013-07-10 16:29:00,84.6,49.7,28.53,South,180,10.4,10.4,30,0.00,CLR,SKC,0.92,WeatherDisplay:10.37,2013-07-10 20:29:00,
2013-07-10 16:34:00,84.4,49.6,28.53,South,180,5.8,5.8,30,0.00,CLR,SKC,0.92,WeatherDisplay:10.37,2013-07-10 20:34:00,
2013-07-10 16:39:00,84.2,49.4,28.53,South,180,5.8,5.8,30,0.00,CLR,SKC,0.92,WeatherDisplay:10.37,2013-07-10 20:39:00,
2013-07-10 16:44:00,84.2,49.4,28.54,SE,135,3.5,3.5,30,0.00,CLR,SKC,0.92,WeatherDisplay:10.37,2013-07-10 20:44:00,
2013-07-10 16:49:00,84.0,51.0,28.54,East,90,3.5,0.0,32,0.00,CLR,SKC,0.92,WeatherDisplay:10.37,2013-07-10 20:49:00,
2013-07-10 16:54:00,84.0,53.4,28.53,South,180,3.5,3.5,35,0.00,CLR,SKC,0.92,WeatherDisplay:10.37,2013-07-10 20:54:00,
2013-07-10 16:59:00,84.0,54.9,28.54,North,8,4.6,4.6,37,0.00,CLR,SKC,0.92,WeatherDisplay:10.37,2013-07-10 20:59:00,
2013-07-10 17:04:00,84.0,57.1,28.53,North,8,3.5,0.0,40,0.00,CLR,SKC,0.92,WeatherDisplay:10.37,2013-07-10 21:04:00,
2013-07-10 17:09:00,84.0,58.5,28.53,South,180,3.5,3.5,42,0.00,CLR,SKC,0.92,WeatherDisplay:10.37,2013-07-10 21:09:00,
2013-07-10 17:14:00,84.0,59.8,28.53,North,7,1.2,0.0,44,0.00,CLR,SKC,0.92,WeatherDisplay:10.37,2013-07-10 21:14:00,
2013-07-10 17:19:00,84.0,59.8,28.53,South,180,1.2,0.0,44,0.00,CLR,SKC,0.92,WeatherDisplay:10.37,2013-07-10 21:19:00,
2013-07-10 17:24:00,83.8,62.1,28.54,SSE,158,3.5,3.5,48,0.00,CLR,SKC,0.92,WeatherDisplay:10.37,2013-07-10 21:24:00,
2013-07-10 17:29:00,83.5,62.9,28.55,South,180,3.5,0.0,50,0.00,CLR,SKC,0.92,WeatherDisplay:10.37,2013-07-10 21:29:00,
2013-07-10 17:34:00,83.5,64.0,28.55,South,180,3.5,3.5,52,0.00,CLR,SKC,0.92,WeatherDisplay:10.37,2013-07-10 21:34:00,
2013-07-10 17:39:00,83.5,64.5,28.55,South,180,3.5,3.5,53,0.00,CLR,SKC,0.92,WeatherDisplay:10.37,2013-07-10 21:39:00,
2013-07-10 17:44:00,83.3,64.9,28.55,South,180,5.8,5.8,54,0.00,CLR,SKC,0.92,WeatherDisplay:10.37,2013-07-10 21:44:00,
2013-07-10 17:49:00,83.1,64.8,28.55,East,90,3.5,3.5,54,0.00,CLR,SKC,0.92,WeatherDisplay:10.37,2013-07-10 21:49:00,
2013-07-10 17:54:00,83.1,64.8,28.55,South,180,3.5,3.5,54,0.00,CLR,SKC,0.92,WeatherDisplay:10.37,2013-07-10 21:54:00,
2013-07-10 18:00:00,83.1,64.2,28.55,South,180,1.2,0.0,53,0.00,CLR,SKC,0.92,WeatherDisplay:10.37,2013-07-10 22:00:00,
2013-07-10 18:05:00,83.1,64.2,28.55,South,180,3.5,0.0,53,0.00,CLR,SKC,0.92,WeatherDisplay:10.37,2013-07-10 22:05:00,
2013-07-10 18:10:00,82.9,64.0,28.55,SSE,158,3.5,0.0,53,0.00,CLR,SKC,0.92,WeatherDisplay:10.37,2013-07-10 22:10:00,
2013-07-10 18:15:00,82.9,64.0,28.55,North,8,3.5,0.0,53,0.00,CLR,SKC,0.92,WeatherDisplay:10.37,2013-07-10 22:15:00,
2013-07-10 18:20:00,82.8,64.4,28.55,South,180,0.0,0.0,54,0.00,CLR,SKC,0.92,WeatherDisplay:10.37,2013-07-10 22:20:00,
2013-07-10 18:25:00,82.8,64.4,28.55,South,180,0.0,0.0,54,0.00,CLR,SKC,0.92,WeatherDisplay:10.37,2013-07-10 22:25:00,
2013-07-10 18:30:00,82.4,64.6,28.55,South,180,3.5,3.5,55,0.00,CLR,SKC,0.92,WeatherDisplay:10.37,2013-07-10 22:30:00,
2013-07-10 18:35:00,81.9,65.1,28.55,NW,315,4.6,4.6,57,0.00,CLR,SKC,0.92,WeatherDisplay:10.37,2013-07-10 22:35:00,
2013-07-10 18:40:00,81.5,63.8,28.61,NW,315,12.7,12.7,55,0.00,CLR,SKC,0.92,WeatherDisplay:10.37,2013-07-10 22:40:00,
2013-07-10 18:45:00,73.9,62.7,28.60,NW,315,29.9,29.9,68,0.01,RA,SKC,0.93,WeatherDisplay:10.37,2013-07-10 22:45:00,
2013-07-10 18:50:00,71.2,66.5,28.60,NW,315,32.2,32.2,85,0.02,RA,SKC,0.94,WeatherDisplay:10.37,2013-07-10 22:50:00,
2013-07-10 18:55:00,70.2,69.9,28.63,WNW,292,19.6,19.6,99,0.02,RA,SKC,0.94,WeatherDisplay:10.37,2013-07-10 22:55:00,
2013-07-10 19:00:00,68.9,68.6,28.63,NW,315,19.6,19.6,99,0.09,RA,SKC,1.04,WeatherDisplay:10.37,2013-07-10 23:00:00,
2013-07-10 19:35:00,67.3,67.0,28.61,North,0,15.0,15.0,99,0.15,,SKC,1.07,WeatherDisplay:10.37,2013-07-10 23:35:00,
2013-07-10 19:40:00,67.3,67.0,28.62,WNW,292,10.4,10.4,99,0.15,CLR,SKC,1.07,WeatherDisplay:10.37,2013-07-10 23:40:00,
2013-07-10 19:45:00,67.3,67.0,28.61,North,0,3.5,3.5,99,0.14,CLR,SKC,1.07,WeatherDisplay:10.37,2013-07-10 23:45:00,
2013-07-10 19:50:00,67.3,67.0,28.61,North,0,3.5,3.5,99,0.13,CLR,SKC,1.07,WeatherDisplay:10.37,2013-07-10 23:50:00,
2013-07-10 19:55:00,67.1,66.8,28.62,North,0,5.8,5.8,99,0.13,CLR,SKC,1.07,WeatherDisplay:10.37,2013-07-10 23:55:00,
2013-07-10 20:00:00,67.1,66.8,28.62,SE,135,2.3,0.0,99,0.06,CLR,SKC,1.07,WeatherDisplay:10.37,2013-07-11 00:00:00,
2013-07-10 20:05:00,66.9,66.6,28.62,SE,135,1.2,0.0,99,0.02,CLR,SKC,1.07,WeatherDisplay:10.37,2013-07-11 00:05:00,
2013-07-10 20:10:00,66.7,66.5,28.62,SE,135,3.5,3.5,99,0.02,RA,SKC,1.09,WeatherDisplay:10.37,2013-07-11 00:10:00,
2013-07-10 20:15:00,66.7,66.5,28.63,South,180,2.3,2.3,99,0.02,RA,SKC,1.09,WeatherDisplay:10.37,2013-07-11 00:15:00,
2013-07-10 20:20:00,66.7,66.5,28.63,SSE,158,4.6,4.6,99,0.02,CLR,SKC,1.09,WeatherDisplay:10.37,2013-07-11 00:20:00,
2013-07-10 20:25:00,66.7,66.5,28.63,South,180,3.5,3.5,99,0.02,RA,SKC,1.10,WeatherDisplay:10.37,2013-07-11 00:25:00,
2013-07-10 20:30:00,66.6,66.3,28.63,South,180,3.5,3.5,99,0.04,RA,SKC,1.11,WeatherDisplay:10.37,2013-07-11 00:30:00,
2013-07-10 20:35:00,66.6,66.3,28.64,South,180,1.2,0.0,99,0.04,RA,SKC,1.11,WeatherDisplay:10.37,2013-07-11 00:35:00,
2013-07-10 20:40:00,66.4,66.1,28.64,SE,135,3.5,3.5,99,0.05,RA,SKC,1.12,WeatherDisplay:10.37,2013-07-11 00:40:00,
2013-07-10 20:45:00,66.4,66.1,28.64,SE,135,3.5,3.5,99,0.05,RA,SKC,1.12,WeatherDisplay:10.37,2013-07-11 00:45:00,
2013-07-10 20:50:00,66.4,66.1,28.63,SE,135,2.3,2.3,99,0.05,,SKC,1.12,WeatherDisplay:10.37,2013-07-11 00:50:00,
2013-07-10 20:55:00,66.2,65.9,28.63,SE,135,5.8,5.8,99,0.07,RA,SKC,1.15,WeatherDisplay:10.37,2013-07-11 00:55:00,
2013-07-10 21:00:00,66.2,65.9,28.62,SE,135,4.6,4.6,99,0.07,RA,SKC,1.15,WeatherDisplay:10.37,2013-07-11 01:00:00,
2013-07-10 21:05:00,66.2,65.9,28.61,ESE,112,3.5,3.5,99,0.07,,SKC,1.17,WeatherDisplay:10.37,2013-07-11 01:05:00,
2013-07-10 21:10:00,66.2,65.9,28.62,SSE,158,5.8,5.8,99,0.08,RA,SKC,1.17,WeatherDisplay:10.37,2013-07-11 01:10:00,
2013-07-10 21:15:00,66.0,65.7,28.62,SSE,158,5.8,5.8,99,0.08,RA,SKC,1.17,WeatherDisplay:10.37,2013-07-11 01:15:00,
2013-07-10 21:20:00,66.0,65.7,28.61,SE,135,4.6,4.6,99,0.08,CLR,SKC,1.17,WeatherDisplay:10.37,2013-07-11 01:20:00,
2013-07-10 21:25:00,66.0,65.7,28.61,SE,135,3.5,3.5,99,0.08,RA,SKC,1.18,WeatherDisplay:10.37,2013-07-11 01:25:00,
2013-07-10 21:30:00,66.0,65.7,28.61,South,180,5.8,5.8,99,0.07,RA,SKC,1.18,WeatherDisplay:10.37,2013-07-11 01:30:00,
2013-07-10 21:35:00,65.8,65.6,28.61,SSE,158,3.5,3.5,99,0.07,CLR,SKC,1.18,WeatherDisplay:10.37,2013-07-11 01:35:00,
2013-07-10 21:40:00,65.8,65.6,28.61,SE,135,1.2,1.2,99,0.06,CLR,SKC,1.18,WeatherDisplay:10.37,2013-07-11 01:40:00,
2013-07-10 21:45:00,65.8,65.6,28.61,South,180,3.5,0.0,99,0.06,CLR,SKC,1.18,WeatherDisplay:10.37,2013-07-11 01:45:00,
2013-07-10 21:50:00,65.7,65.4,28.61,South,180,0.0,0.0,99,0.06,CLR,SKC,1.18,WeatherDisplay:10.37,2013-07-11 01:50:00,
2013-07-10 21:55:00,65.7,65.4,28.61,SE,135,3.5,3.5,99,0.04,CLR,SKC,1.18,WeatherDisplay:10.37,2013-07-11 01:55:00,
2013-07-10 22:00:00,65.7,65.4,28.61,South,180,3.5,3.5,99,0.04,CLR,SKC,1.18,WeatherDisplay:10.37,2013-07-11 02:00:00,
2013-07-10 22:05:00,65.7,65.4,28.60,South,180,3.5,3.5,99,0.04,CLR,SKC,1.18,WeatherDisplay:10.37,2013-07-11 02:05:00,
2013-07-10 22:10:00,65.7,65.4,28.60,SE,135,3.5,3.5,99,0.01,CLR,SKC,1.18,WeatherDisplay:10.37,2013-07-11 02:10:00,
2013-07-10 22:15:00,65.7,65.4,28.60,SE,135,4.6,4.6,99,0.01,CLR,SKC,1.18,WeatherDisplay:10.37,2013-07-11 02:15:00,
2013-07-10 22:20:00,65.7,65.4,28.60,SE,135,3.5,3.5,99,0.01,CLR,SKC,1.18,WeatherDisplay:10.37,2013-07-11 02:20:00,
2013-07-10 22:25:00,65.7,65.4,28.60,SE,135,5.8,5.8,99,0.00,CLR,SKC,1.18,WeatherDisplay:10.37,2013-07-11 02:25:00,
2013-07-10 22:30:00,65.7,65.4,28.60,SSE,158,3.5,3.5,99,0.00,CLR,SKC,1.18,WeatherDisplay:10.37,2013-07-11 02:30:00,
2013-07-10 22:35:00,65.5,65.2,28.60,North,6,3.5,0.0,99,0.00,CLR,SKC,1.18,WeatherDisplay:10.37,2013-07-11 02:35:00,
2013-07-10 22:40:00,65.5,65.2,28.60,North,0,5.8,5.8,99,0.00,CLR,SKC,1.18,WeatherDisplay:10.37,2013-07-11 02:40:00,
2013-07-10 22:45:00,65.5,65.2,28.60,South,180,1.2,0.0,99,0.00,CLR,SKC,1.18,WeatherDisplay:10.37,2013-07-11 02:45:00,
2013-07-10 22:50:00,65.5,65.2,28.60,North,0,0.0,0.0,99,0.00,CLR,SKC,1.18,WeatherDisplay:10.37,2013-07-11 02:50:00,
2013-07-10 22:55:00,65.5,65.2,28.60,South,180,2.3,0.0,99,0.00,CLR,SKC,1.18,WeatherDisplay:10.37,2013-07-11 02:55:00,
2013-07-10 23:00:00,65.5,65.2,28.59,SE,135,2.3,2.3,99,0.00,CLR,SKC,1.18,WeatherDisplay:10.37,2013-07-11 03:00:00,
2013-07-10 23:05:00,65.5,65.2,28.60,SE,135,2.3,2.3,99,0.00,CLR,SKC,1.18,WeatherDisplay:10.37,2013-07-11 03:05:00,
2013-07-10 23:10:00,65.7,65.4,28.60,NW,315,4.6,4.6,99,0.00,CLR,SKC,1.18,WeatherDisplay:10.37,2013-07-11 03:10:00,
2013-07-10 23:15:00,65.5,65.2,28.60,North,1,2.3,2.3,99,0.00,CLR,SKC,1.18,WeatherDisplay:10.37,2013-07-11 03:15:00,
2013-07-10 23:20:00,65.5,65.2,28.60,NW,315,5.8,5.8,99,0.00,CLR,SKC,1.18,WeatherDisplay:10.37,2013-07-11 03:20:00,
2013-07-10 23:25:00,65.3,65.0,28.60,North,0,5.8,5.8,99,0.00,CLR,SKC,1.18,WeatherDisplay:10.37,2013-07-11 03:25:00,
2013-07-10 23:30:00,65.3,65.0,28.59,NNE,14,5.8,5.8,99,0.00,CLR,SKC,1.18,WeatherDisplay:10.37,2013-07-11 03:30:00,
2013-07-10 23:36:00,65.3,65.0,28.59,NW,315,5.8,5.8,99,0.00,CLR,SKC,1.18,WeatherDisplay:10.37,2013-07-11 03:36:00,
2013-07-10 23:41:00,65.3,65.0,28.59,North,1,1.2,0.0,99,0.00,CLR,SKC,1.18,WeatherDisplay:10.37,2013-07-11 03:41:00,
2013-07-10 23:46:00,65.3,65.0,28.58,North,0,3.5,0.0,99,0.00,CLR,SKC,1.18,WeatherDisplay:10.37,2013-07-11 03:46:00,
2013-07-10 23:51:00,65.1,64.8,28.59,North,0,0.0,0.0,99,0.00,CLR,SKC,1.18,WeatherDisplay:10.37,2013-07-11 03:51:00,
2013-07-10 23:56:00,65.1,64.8,28.58,North,0,0.0,0.0,99,0.00,CLR,SKC,1.18,WeatherDisplay:10.37,2013-07-11 03:56:00,